Retour au catalogue

EMISAR

ActifScienceSSO
NORAD 68427·PAYLOAD·🇬🇷 Greece

Lancé Mar 30, 2026 depuis Vandenberg Space Force Base

Loading…

Prochains Passages (prochaines 24 heures)

TLE

FraisSource: Space-Track

Époque: Sep 14, 2026, 02:36 UTC

1 68427U 26067M   26257.10877589  .00008379  00000-0  38456-3 0  9991
2 68427  97.4643 214.6569 0003240  65.0657 295.0915 15.20661476 25458

Suivez EMISAR en temps réel avec AllMySat

Download on the App Store